Погода в Анси

Франция     45°53′59″N   6°06′59″E
темп.,
°C
ветер,
м/с
пор.,
м/с
влажн.,
%
обл.,
%
осадки,
мм/ч
давл.,
гПа
погр.,
м
18 января, пн
пн1801:00−2ссв119779 0.1 102935
04:00−3ссз119679 0.0 102921
07:00−4с129479 0.0 103025
10:00−2с119150 0.0 103059
13:00+2с018726 0.0 1028470
16:00+1ю009223 0.0 102774
19:00−3всв009461 0.0 102921
22:00−4св0194100 0.0 102821
19 января, вт
вт1901:00−5с019364 0.0 102821
04:00−6ююз009136 0.0 102621
07:00−6ююв018760 0.0 102621
10:00−2юз008122 0.0 102435
13:00+3юз128061 0.0 1022168
16:00+3юз118819 0.0 102033
19:00−1ю128311 0.0 102122
22:00−2ююз11849 0.0 102022
20 января, ср
ср2001:00−3ююз12874 0.0 102024
04:00−3ююз12841 0.0 101825
07:00−3ю11779 0.0 101621
10:00+1ююз017775 0.0 101434
13:00+4ююз128487 0.0 1012102
16:00+4ююз1292100 0.0 100925
19:00+1в1189100 0.0 101022
22:00−1всв118796 0.0 100922
21 января, чт
чт2101:000всв118799 0.1 100922
04:00−1ю118999 0.1 100825
07:000ю118599 0.1 100825
10:00+2ююз128483 0.0 100883
13:00+5ююз238786 0.0 1007179
16:00+5ююз129598 0.0 100332
19:00+3ююз1296100 0.0 100328
22:00+2ю2296100 0.4 100139
22 января, пт
пт2201:00+2ююв2297100 3.4 100072
04:00+2ююз119699 0.4 99926
07:00+3ююв2119899 2.8 999450
10:00+3з3799100 10.8 1000572
13:00+2ю2497100 11.9 1002326
16:00+3ююз1391100 0.3 1002186
19:000ю229599 0.4 100552
22:000юз369998 2.9 1006326